When you browse on this site, cookies collect data to enhance your experience and personalize the content and advertising you see.
Visit our Privacy Policy to learn more. By continuing to use the site, you agree to this use of cookies and data.
  • In Deutschland
  • Länderverzeichnis
  • Für 7 Tage
  • Wassertemperatur
  • Satellitenkarten
  • Wetterkarte
  • Widgets
  • user-avatar
    Anmelden

    Stündliche Wetter Porto Real do Colégio

    Heute, 21 Februar, Donnerstag

    Zeit Temperatur Niederschläge Wind Luftdruck Luftfeuchtigkeit
    00:00 +27°C° 0 mm 2 m/S 758 mmHg 83%
    01:00 +27°C° 0 mm 2 m/S 758 mmHg 84%
    02:00 +27°C° 0 mm 2 m/S 758 mmHg 86%
    03:00 +26°C° 0 mm 1 m/S 758 mmHg 87%
    04:00 +26°C° 0 mm 1 m/S 758 mmHg 89%
    05:00 +26°C° 0 mm 1 m/S 758 mmHg 89%
    06:00 +26°C° 0 mm 1 m/S 758 mmHg 89%
    07:00 +26°C° 0 mm 1 m/S 758 mmHg 89%
    08:00 +28°C° 0 mm 1 m/S 759 mmHg 78%
    09:00 +30°C° 0 mm 2 m/S 759 mmHg 67%
    10:00 +33°C° 0 mm 3 m/S 759 mmHg 56%
    11:00 +35°C° 0 mm 3 m/S 759 mmHg 51%
    12:00 +36°C° 0 mm 4 m/S 759 mmHg 46%
    13:00 +38°C° 0 mm 4 m/S 758 mmHg 41%
    14:00 +37°C° 0 mm 5 m/S 758 mmHg 43%
    15:00 +37°C° 0 mm 5 m/S 757 mmHg 46%
    16:00 +38°C° 0 mm 6 m/S 757 mmHg 49%
    17:00 +35°C° 0 mm 6 m/S 757 mmHg 55%
    18:00 +33°C° 0 mm 5 m/S 757 mmHg 62%
    19:00 +30°C° 0 mm 5 m/S 757 mmHg 68%
    20:00 +30°C° 0 mm 4 m/S 758 mmHg 71%
    21:00 +29°C° 0 mm 4 m/S 758 mmHg 75%
    22:00 +29°C° 0 mm 3 m/S 759 mmHg 78%
    23:00 +28°C° 0 mm 3 m/S 759 mmHg 80%

    Morgen, 22 Februar, Freitag

    Zeit Temperatur Niederschläge Wind Luftdruck Luftfeuchtigkeit
    00:00 +28°C° 0 mm 2 m/S 759 mmHg 81%
    01:00 +28°C° 0 mm 2 m/S 760 mmHg 82%
    02:00 +27°C° 0 mm 2 m/S 759 mmHg 84%
    03:00 +27°C° 0 mm 1 m/S 759 mmHg 85%
    04:00 +27°C° 0 mm 1 m/S 758 mmHg 87%
    05:00 +27°C° 0 mm 1 m/S 759 mmHg 87%
    06:00 +27°C° 0 mm 1 m/S 759 mmHg 87%
    07:00 +27°C° 0 mm 1 m/S 759 mmHg 87%
    08:00 +29°C° 0 mm 2 m/S 759 mmHg 76%
    09:00 +31°C° 0 mm 2 m/S 760 mmHg 66%
    10:00 +34°C° 0 mm 3 m/S 760 mmHg 55%
    11:00 +35°C° 0 mm 3 m/S 760 mmHg 51%
    12:00 +36°C° 0 mm 3 m/S 759 mmHg 47%
    13:00 +37°C° 0 mm 4 m/S 759 mmHg 44%
    14:00 +37°C° 0.1 mm 4 m/S 758 mmHg 46%
    15:00 +37°C° 0.1 mm 5 m/S 757 mmHg 47%
    16:00 +36°C° 0.1 mm 5 m/S 756 mmHg 49%
    17:00 +35°C° 0 mm 5 m/S 757 mmHg 55%
    18:00 +33°C° 0 mm 5 m/S 757 mmHg 61%
    19:00 +32°C° 0 mm 5 m/S 757 mmHg 67%
    20:00 +30°C° 0 mm 4 m/S 758 mmHg 71%
    21:00 +30°C° 0 mm 4 m/S 759 mmHg 75%
    22:00 +29°C° 0 mm 4 m/S 760 mmHg 79%
    23:00 +29°C° 0 mm 3 m/S 760 mmHg 80%

    übermorgen, 23 Februar, Samstag

    Zeit Temperatur Niederschläge Wind Luftdruck Luftfeuchtigkeit
    00:00 +29°C° 0 mm 2 m/S 759 mmHg 82%
    01:00 +28°C° 0 mm 2 m/S 759 mmHg 84%
    02:00 +28°C° 0.2 mm 2 m/S 759 mmHg 85%
    03:00 +28°C° 0.2 mm 1 m/S 758 mmHg 87%
    04:00 +28°C° 0.2 mm 1 m/S 758 mmHg 88%
    05:00 +28°C° 0 mm 1 m/S 758 mmHg 89%
    06:00 +28°C° 0 mm 1 m/S 758 mmHg 89%
    07:00 +28°C° 0 mm 1 m/S 758 mmHg 89%
    08:00 +29°C° 0 mm 1 m/S 759 mmHg 80%
    09:00 +31°C° 0 mm 2 m/S 759 mmHg 70%
    10:00 +34°C° 0 mm 2 m/S 759 mmHg 61%
    11:00 +35°C° 0.1 mm 3 m/S 759 mmHg 56%
    12:00 +36°C° 0.1 mm 3 m/S 758 mmHg 52%
    13:00 +37°C° 0.1 mm 3 m/S 758 mmHg 47%
    14:00 +37°C° 0.2 mm 4 m/S 757 mmHg 48%
    15:00 +37°C° 0.2 mm 4 m/S 756 mmHg 50%
    16:00 +36°C° 0.2 mm 5 m/S 755 mmHg 51%
    17:00 +35°C° 0.3 mm 4 m/S 756 mmHg 57%
    18:00 +33°C° 0.3 mm 4 m/S 756 mmHg 63%
    19:00 +32°C° 0.3 mm 4 m/S 756 mmHg 69%
    20:00 +30°C° 0 mm 4 m/S 757 mmHg 73%
    21:00 +30°C° 0 mm 3 m/S 758 mmHg 76%
    22:00 +29°C° 0 mm 3 m/S 758 mmHg 80%
    23:00 +29°C° 0 mm 3 m/S 758 mmHg 81%

    24 Februar, Sonntag

    Zeit Temperatur Niederschläge Wind Luftdruck Luftfeuchtigkeit
    00:00 +29°C° 0 mm 2 m/S 758 mmHg 83%
    01:00 +28°C° 0 mm 2 m/S 758 mmHg 84%
    02:00 +28°C° 0 mm 2 m/S 757 mmHg 85%
    03:00 +28°C° 0 mm 1 m/S 757 mmHg 87%
    04:00 +28°C° 0 mm 1 m/S 756 mmHg 88%
    05:00 +28°C° 0 mm 1 m/S 757 mmHg 88%
    06:00 +28°C° 0 mm 1 m/S 757 mmHg 87%
    07:00 +28°C° 0 mm 1 m/S 757 mmHg 87%
    08:00 +29°C° 0.1 mm 1 m/S 758 mmHg 78%
    09:00 +31°C° 0.1 mm 2 m/S 758 mmHg 69%
    10:00 +34°C° 0.1 mm 2 m/S 759 mmHg 60%
    11:00 +35°C° 0.2 mm 2 m/S 758 mmHg 55%
    12:00 +36°C° 0.2 mm 3 m/S 757 mmHg 50%
    13:00 +38°C° 0.2 mm 3 m/S 757 mmHg 45%
    14:00 +38°C° 0 mm 3 m/S 756 mmHg 45%
    15:00 +37°C° 0 mm 4 m/S 755 mmHg 46%
    16:00 +37°C° 0 mm 4 m/S 754 mmHg 46%
    17:00 +36°C° 0 mm 4 m/S 755 mmHg 53%
    18:00 +34°C° 0 mm 5 m/S 755 mmHg 60%
    19:00 +32°C° 0 mm 5 m/S 755 mmHg 67%
    20:00 +32°C° 0 mm 4 m/S 756 mmHg 69%
    21:00 +30°C° 0 mm 4 m/S 756 mmHg 72%
    22:00 +30°C° 0 mm 3 m/S 757 mmHg 75%
    23:00 +29°C° 0 mm 3 m/S 757 mmHg 76%

    25 Februar, Montag

    Zeit Temperatur Niederschläge Wind Luftdruck Luftfeuchtigkeit
    00:00 +29°C° 0 mm 2 m/S 757 mmHg 77%
    01:00 +28°C° 0 mm 2 m/S 757 mmHg 78%
    02:00 +28°C° 0 mm 2 m/S 756 mmHg 80%
    03:00 +28°C° 0 mm 2 m/S 756 mmHg 82%
    04:00 +27°C° 0 mm 1 m/S 756 mmHg 84%
    05:00 +27°C° 0 mm 2 m/S 756 mmHg 85%
    06:00 +27°C° 0 mm 2 m/S 756 mmHg 87%
    07:00 +27°C° 0 mm 2 m/S 757 mmHg 88%
    08:00 +29°C° 0 mm 2 m/S 757 mmHg 76%
    09:00 +31°C° 0 mm 3 m/S 757 mmHg 64%
    10:00 +35°C° 0 mm 3 m/S 757 mmHg 52%
    11:00 +36°C° 0 mm 3 m/S 757 mmHg 46%
    12:00 +38°C° 0 mm 3 m/S 756 mmHg 40%
    13:00 +39°C° 0 mm 2 m/S 756 mmHg 34%
    14:00 +40°C° 0 mm 3 m/S 755 mmHg 34%
    15:00 +41°C° 0 mm 4 m/S 754 mmHg 34%
    16:00 +41°C° 0 mm 5 m/S 754 mmHg 34%
    17:00 +39°C° 0 mm 5 m/S 754 mmHg 43%
    18:00 +35°C° 0 mm 5 m/S 754 mmHg 52%
    19:00 +33°C° 0 mm 6 m/S 755 mmHg 61%
    20:00 +32°C° 0 mm 5 m/S 755 mmHg 62%
    21:00 +32°C° 0 mm 5 m/S 756 mmHg 64%
    22:00 +30°C° 0 mm 5 m/S 757 mmHg 65%
    23:00 +30°C° 0 mm 4 m/S 757 mmHg 67%

    26 Februar, Dienstag

    Zeit Temperatur Niederschläge Wind Luftdruck Luftfeuchtigkeit
    00:00 +29°C° 0 mm 4 m/S 756 mmHg 69%
    01:00 +29°C° 0 mm 3 m/S 756 mmHg 71%
    02:00 +28°C° 0 mm 3 m/S 756 mmHg 73%
    03:00 +27°C° 0 mm 2 m/S 756 mmHg 76%
    04:00 +27°C° 0 mm 1 m/S 756 mmHg 78%
    05:00 +27°C° 0 mm 1 m/S 756 mmHg 79%
    06:00 +27°C° 0 mm 1 m/S 757 mmHg 80%
    07:00 +26°C° 0 mm 2 m/S 757 mmHg 81%
    08:00 +29°C° 0 mm 2 m/S 757 mmHg 69%
    09:00 +31°C° 0 mm 2 m/S 758 mmHg 58%
    10:00 +35°C° 0 mm 3 m/S 758 mmHg 47%
    11:00 +37°C° 0 mm 3 m/S 757 mmHg 42%
    12:00 +38°C° 0 mm 2 m/S 757 mmHg 36%
    13:00 +40°C° 0 mm 2 m/S 756 mmHg 31%
    14:00 +40°C° 0 mm 3 m/S 756 mmHg 32%
    15:00 +41°C° 0 mm 4 m/S 755 mmHg 34%
    16:00 +41°C° 0 mm 5 m/S 754 mmHg 35%
    17:00 +37°C° 0 mm 5 m/S 755 mmHg 45%
    18:00 +35°C° 0 mm 5 m/S 755 mmHg 55%
    19:00 +33°C° 0 mm 5 m/S 755 mmHg 65%
    20:00 +33°C° 0 mm 5 m/S 756 mmHg 68%
    21:00 +32°C° 0 mm 5 m/S 757 mmHg 71%
    22:00 +30°C° 0 mm 5 m/S 757 mmHg 74%
    23:00 +30°C° 0 mm 5 m/S 757 mmHg 75%
    Mehr zeigen